Simultaneous Nadir Overpasses (SNOs) Predictions

Prediction of SNOs between NPP and TERRA Satellite Orbit:

Table of predicted SNOs for the next 14.0 days since TLE Epoch: 1/20/2024
Index Date (NPP) Time (NPP) Lat,Lon (NPP) SZA (NPP ) Date (TERRA) Time (TERRA) Lat,Lon (TERRA) SZA (TERRA ) Distance(km) Time Diff (sec)
1 01/20/2024 14:48:22 71.71, -48.26 91.96 01/20/2024 14:49:24 71.72, -48.21 91.95 1.94 62
2 01/20/2024 15:39:04 -71.61, 119.24 88.16 01/20/2024 15:38:49 -71.60, 119.25 88.17 1.23 15
3 01/23/2024 02:51:32 -71.71, -49.05 88.59 01/23/2024 02:52:41 -71.72, -49.07 88.61 0.63 69
4 01/23/2024 03:42:16 71.61, 118.44 91.30 01/23/2024 03:42:03 71.62, 118.44 91.30 0.49 13
5 01/23/2024 04:32:46 -70.89, -72.99 89.49 01/23/2024 04:31:38 -70.97, -74.94 89.31 71.57 68
6 01/25/2024 14:54:43 71.73, -49.87 90.84 01/25/2024 14:55:53 71.74, -49.86 90.84 1.93 70
7 01/25/2024 15:45:25 -71.62, 117.64 89.29 01/25/2024 15:45:18 -71.64, 117.63 89.27 2.34 7
8 01/25/2024 16:35:58 70.95, -73.89 89.99 01/25/2024 16:34:50 70.99, -75.74 90.13 67.44 68
9 01/28/2024 02:57:56 -71.89, -50.97 89.62 01/28/2024 02:59:07 -71.85, -50.54 89.70 15.93 71
10 01/28/2024 03:48:37 71.65, 116.79 90.11 01/28/2024 03:48:31 71.62, 116.76 90.09 2.68 6
11 01/28/2024 04:39:12 -71.17, -75.06 90.41 01/28/2024 04:38:01 -71.26, -76.17 90.26 41.00 71
12 01/30/2024 15:01:08 71.93, -51.84 89.77 01/30/2024 15:02:19 71.84, -51.38 89.64 18.68 71
13 01/30/2024 15:51:47 -71.66, 115.97 90.54 01/30/2024 15:51:46 -71.64, 115.95 90.56 2.38 1
14 01/30/2024 16:42:24 71.21, -75.91 88.97 01/30/2024 16:41:13 71.25, -77.02 89.08 39.87 71
15 02/02/2024 03:04:20 -72.05, -52.86 90.80 02/02/2024 03:05:31 -71.99, -51.96 90.92 31.70 71
16 02/02/2024 03:54:58 71.66, 115.18 88.77 02/02/2024 03:54:57 71.65, 115.13 88.76 2.40 1



Historial Predications of SNOs between NPP and TERRA
